FENGYUN 1C DEB, 37048

Orbit data source: Space-Track

FENGYUN 1C DEB, 37048 is space debris in SSO originally from a launch on Mon, 10 May 1999 UTC launched from the Taiyaun Space Center, China (TSC). Fengyun 1C debris stems from the Chinese weather satellite Fengyun-1C, which was intentionally destroyed by a Chinese anti-satellite missile in 2007. This event dramatically increased the amount of space debris, with thousands of trackable fragments posing hazards to satellites and human spaceflight. The Fengyun 1C debris cloud has become a focal point in discussions about space sustainability and the need for international regulations to prevent the creation of new debris.

Loading next visibility...
Identifier
37048, 1999-025EEG
Orbit
SSO
Country
Flag of CNCN / PRC
Related business
Manufacturer
Unknown
Mission
Spacecraft
Bus & Motor
Unknown
Mass
Unknown
Launch date (UTC)
1999-05-10 (27 years ago)
Launch vehicle
Unknown
Launch site
Taiyaun Space Center, China (TSC)
Object type
Payload
Rocket body
Debris
Shape & HBR
Unknown shape, 0.1 m
Radar Cross Section
Medium (>0.1 m² and <1 m²)

Expand to show TLE details & history
Last TLE update: 4 days ago

TLE from 4 days ago
0 FENGYUN 1C DEB
1 37048U 99025EEG 26147.41326713  .00000288  00000-0  32014-3 0  9995
2 37048  98.8697 359.9166 0255318  75.8041  45.3621 13.65271181644302
Epoch: 2026-05-27T09:55Z
TLE epoch observation values (Epoch: 2026-05-27T09:55:06.280Z)
Latitude
55.77527°
Longitude
159.35911°
Altitude
895.642 km
Speed
7.475 km/s
True Right ascension
12h 52m 25s
True Declination
55° 37' 05"
Sunlit
Object was in daylight at epoch
Visualization orbit readout
Latitude
Unknown
Longitude
Unknown
Altitude
Unknown
Speed
Unknown
Apparent Right ascension
Unknown
Apparent Declination
Unknown
Sunlit
N/A
Visualization observer readout
Local Sidereal Time
22:41:39
Azimuth
Unknown
Elevation
Unknown
Doppler factor
Unknown
Orbital elements
Apogee altitude
1,202.564 km
Perigee altitude
825.104 km
Semi-major axis
7,391.971 km
Eccentricity
0.02553
Inclination
98.8697°
RAAN
359.9166°
Arg. of periapsis
75.8041°
True anomaly
47.49115°
Mean anomaly
45.3621°
Eccentric anomaly
46.42185°
Mean motion
3.41509 °/min
Orbital period
105.41 mins
BSTAR
0.00032014
Loading maneuver chart data...
Computing Atmospheric mass density...
Loading historical data...
Loading historical data...
Loading historical data...
Loading historical data...
Loading historical data...
Loading historical data...
Loading historical data...

Documentation

Showing up to 5 results
|